Location: Mentone
(34.5413°N, 85.5351°W)
Time: 23:04:45
(UTC-05:00)

ADEOS Rocket - Visible Passes

Search period start: 31 October 2014 00:00
Search period end: 09 November 2014 23:00
Orbit: 859 x 1307 km, 98.7° (Epoch: 31 October)

Date Brightness Start Highest point End Pass type
(mag) Time Alt. Az. Time Alt. Az. Time Alt. Az.
31 Oct 5.2 19:52:00 15° NNE 19:52:00 15° NNE 19:53:37 10° NNE visible
31 Oct 5.5 21:38:59 18° NNW 21:38:59 18° NNW 21:40:34 10° NNW visible
01 Nov 5.2 20:49:38 20° N 20:49:38 20° N 20:51:37 10° N visible
02 Nov 5.2 19:00:17 15° NNE 19:00:17 15° NNE 19:01:48 10° NNE visible
02 Nov 5.7 20:47:16 15° NNW 20:47:16 15° NNW 20:48:23 10° NNW visible
03 Nov 5.3 19:57:55 18° N 19:57:55 18° N 19:59:33 10° N visible
04 Nov 5.3 19:08:34 15° NNE 19:08:34 15° NNE 19:09:55 10° N visible
04 Nov 5.8 20:55:33 13° NNW 20:55:33 13° NNW 20:56:09 10° NNW visible
05 Nov 5.5 20:06:12 16° N 20:06:12 16° N 20:07:28 10° N visible
06 Nov 5.3 19:16:51 15° NNE 19:16:51 15° NNE 19:17:58 10° N visible
06 Nov 6.0 21:03:50 10° NNW 21:03:50 10° NNW 21:03:53 10° NNW visible
07 Nov 5.6 20:14:29 14° N 20:14:29 14° N 20:15:20 10° N visible
08 Nov 5.4 19:25:08 14° N 19:25:08 14° N 19:25:59 10° N visible
09 Nov 5.7 20:22:46 12° NNW 20:22:46 12° NNW 20:23:11 10° NNW visible
